TimeEST,TemperatureF,Dew PointF,Humidity,Sea Level PressureIn,VisibilityMPH,Wind Direction,Wind SpeedMPH,Gust SpeedMPH,PrecipitationIn,Events,Conditions,WindDirDegrees,DateUTC
12:51 AM,37.9,32.0,79,30.16,10.0,Calm,Calm,-,N/A,,Overcast,0,2012-11-21 05:51:00
1:51 AM,33.1,30.0,89,30.16,10.0,East,3.5,-,N/A,,Partly Cloudy,100,2012-11-21 06:51:00
2:51 AM,35.1,32.0,89,30.18,10.0,ESE,3.5,-,N/A,,Overcast,110,2012-11-21 07:51:00
3:51 AM,37.9,32.0,79,30.17,10.0,Calm,Calm,-,N/A,,Overcast,0,2012-11-21 08:51:00
4:51 AM,34.0,30.9,89,30.19,10.0,East,3.5,-,N/A,,Scattered Clouds,80,2012-11-21 09:51:00
5:51 AM,37.0,32.0,82,30.21,10.0,Calm,Calm,-,N/A,,Scattered Clouds,0,2012-11-21 10:51:00
6:51 AM,30.9,28.0,89,30.22,8.0,ENE,3.5,-,N/A,,Overcast,70,2012-11-21 11:51:00
7:51 AM,33.1,30.0,89,30.24,7.0,Calm,Calm,-,N/A,,Partly Cloudy,0,2012-11-21 12:51:00
8:51 AM,41.0,35.1,79,30.25,10.0,Calm,Calm,-,N/A,,Clear,0,2012-11-21 13:51:00
9:51 AM,48.0,35.1,61,30.25,10.0,Calm,Calm,-,N/A,,Clear,0,2012-11-21 14:51:00
10:51 AM,51.1,30.0,44,30.25,10.0,Calm,Calm,-,N/A,,Partly Cloudy,0,2012-11-21 15:51:00
11:51 AM,55.0,27.0,34,30.24,10.0,Calm,Calm,-,N/A,,Partly Cloudy,0,2012-11-21 16:51:00
12:51 PM,57.0,27.0,32,30.22,10.0,Variable,3.5,-,N/A,,Partly Cloudy,0,2012-11-21 17:51:00
1:51 PM,57.0,30.0,36,30.22,10.0,West,4.6,-,N/A,,Partly Cloudy,280,2012-11-21 18:51:00
2:51 PM,57.9,23.0,26,30.22,10.0,Variable,3.5,-,N/A,,Partly Cloudy,0,2012-11-21 19:51:00
3:51 PM,57.9,21.9,25,30.22,10.0,Calm,Calm,-,N/A,,Partly Cloudy,0,2012-11-21 20:51:00
4:51 PM,51.1,25.0,36,30.22,10.0,Calm,Calm,-,N/A,,Partly Cloudy,0,2012-11-21 21:51:00
5:51 PM,46.0,24.1,42,30.22,10.0,Calm,Calm,-,N/A,,Partly Cloudy,0,2012-11-21 22:51:00
6:51 PM,39.9,23.0,51,30.23,10.0,SE,3.5,-,N/A,,Clear,130,2012-11-21 23:51:00
7:51 PM,43.0,26.1,51,30.23,10.0,Calm,Calm,-,N/A,,Clear,0,2012-11-22 00:51:00
8:51 PM,37.0,25.0,62,30.24,10.0,Calm,Calm,-,N/A,,Clear,0,2012-11-22 01:51:00
9:51 PM,36.0,25.0,64,30.23,10.0,ESE,3.5,-,N/A,,Clear,110,2012-11-22 02:51:00
10:51 PM,37.0,25.0,62,30.22,10.0,SE,3.5,-,N/A,,Clear,140,2012-11-22 03:51:00
11:51 PM,32.0,23.0,69,30.23,10.0,Calm,Calm,-,N/A,,Partly Cloudy,0,2012-11-22 04:51:00